Regional Weather Roundup
Issued by NWS Upton, NY

Current Version | Previous Version | Graphics & Text | Print | Product List | Glossary Off
Versions: 1 2 3 4 5 6 7 8 9 10 11 12 13 14 15 16 17 18 19 20 21 22 23 24 25 26 27 28 29 30 31 32 33 34 35 36 37 38 39 40 41 42 43 44 45 46 47 48 49 50
000 ASUS41 KOKX 240807 RWROKX REGIONAL WEATHER ROUNDUP NATIONAL WEATHER SERVICE NEW YORK NY 400 AM EDT FRI MAR 24 2017 NOTE: "FAIR" INDICATES FEW OR NO CLOUDS BELOW 12,000 FEET WITH NO SIGNIFICANT WEATHER AND/OR OBSTRUCTIONS TO VISIBILITY. NYZ071-072-176-178-NJZ106-104-240900- NEW YORK CITY METRO AREA CITY SKY/WX TMP DP RH WIND PRES REMARKS Central Park PTCLDY 37 15 40 W6 30.51F WCI 32 Wall St Helipt SUNNY 36 19 51 SW6 30.51F WCI 31 LaGuardia APRT PTCLDY 39 15 37 SW9 30.49F WCI 33 Kennedy INTL CLOUDY 34 23 64 S10 30.50F WCI 26 Breezy Point N/A 34 N/A N/A SW9G15 N/A WCI 26 Newark/Liberty MOCLDY 32 16 51 S6 30.49F WCI 26 Teterboro PTCLDY 33 19 56 VRB5 30.48F WCI 29 $$ NYZ177-179-078>081-240900- LONG ISLAND NEW YORK CITY SKY/WX TMP DP RH WIND PRES REMARKS Jones Beach N/A 36 N/A N/A SW8 N/A WCI 29 Matinecock PT NOT AVBL Farmingdale PTCLDY 29 23 78 S3 30.50F MacArthur/ISP CLEAR 28 24 85 E3 30.50F Shirley CLOUDY 25 20 81 CALM 30.53F Westhampton PTCLDY 17 9 70 CALM 30.54F East Hampton N/A 19 13 78 CALM 30.52F Montauk N/A 26 20 77 CALM 30.53F $$ NYZ052-065-067-240900- HUDSON VALLEY CITY SKY/WX TMP DP RH WIND PRES REMARKS White Plains PTCLDY 30 22 72 CALM 30.46F Newburgh CLEAR 28 14 54 CALM 30.46F Montgomery MOCLDY 26 17 68 CALM 30.44F Poughkeepsie CLOUDY 26 15 63 E3 30.46F Albany CLOUDY 30 8 39 S5 30.41F WCI 25 $$ NJZ001-105-106-008-010-013-015-019>022-104-240900- NEW JERSEY CITY SKY/WX TMP DP RH WIND PRES REMARKS Newark/Liberty MOCLDY 32 16 51 S6 30.49F WCI 26 Teterboro PTCLDY 33 19 56 VRB5 30.48F WCI 29 Caldwell CLOUDY 26 16 65 CALM 30.49F Somerville CLOUDY 22 16 78 CALM 30.46F Linden N/A 32 15 49 CALM 30.50F Sussex MOCLDY 22 16 78 CALM 30.43F Andover N/A 23 18 81 CALM 30.44F Trenton CLOUDY 29 19 66 S6 30.47F WCI 23 Millville PTCLDY 26 23 88 CALM 30.50F Atlantic City CLOUDY 34 27 75 S6 30.52F WCI 29 Wrightstown CLOUDY 28 22 78 S3 30.46F Toms River PTCLDY 24 20 84 S3 30.51F Belmar CLOUDY 29 19 66 S5 30.50F WCI 24 $$ PAZ047>061-062-071-240900- EASTERN PENNSYLVANIA CITY SKY/WX TMP DP RH WIND PRES REMARKS Philadelphia CLOUDY 33 25 72 SW6 30.50F WCI 28 Allentown CLOUDY 28 15 58 CALM 30.44F Scranton CLOUDY 32 14 47 VRB6 30.39S WCI 26 $$ CTZ002-004>006-009-010-012-RIZ004-006-007-MAZ004-011-015-240900- SOUTHERN NEW ENGLAND IN CT CITY SKY/WX TMP DP RH WIND PRES REMARKS Bradley INTL CLOUDY 27 13 55 CALM 30.50F Hartford MOCLDY 28 14 55 CALM 30.51F Danbury CLOUDY 25 16 68 CALM 30.48F Wtrbury/Oxford PTCLDY 30 16 55 S5 30.47F WCI 25 Bridgeport PTCLDY 30 20 66 NE3 30.50F Meriden CLOUDY 26 18 71 CALM 30.50F New Haven PTCLDY 26 18 71 CALM 30.50F Chester NOT AVBL Groton CLOUDY 25 15 66 N3 30.52F Wilimantic MOCLDY 25 15 66 E5 30.51F WCI 19 IN RI CITY SKY/WX TMP DP RH WIND PRES REMARKS Providence CLOUDY 27 9 46 SW6 30.53S WCI 20 Block Island PTCLDY 32 24 72 SW6 30.53F WCI 26 Westerly PTCLDY 24 18 77 CALM 30.53F IN MA CITY SKY/WX TMP DP RH WIND PRES REMARKS Boston CLOUDY 30 13 49 SW5 30.52S WCI 25 Worcester CLOUDY 25 5 42 SW6 30.44F WCI 18 Westfield CLOUDY 25 16 68 S3 30.47F Provincetown CLOUDY 33 12 41 N6 30.53R WCI 28 Nantucket CLEAR 31 13 47 NW7 30.53R WCI 24 $$ ANZ330-335-338-340-345-350-353-355-240900- COASTAL MARINE OBSERVATIONS STATION/POSITION TIME SKY/WX TEMP WIND PRES VSBY WAVE AIR SEA DIR/SP/G HT/PER (UTC) (F) (DEG/KT/KT) (MB) (MI) (FT/S) NY HARB ENTRANCE 0750 37 41 230/ 14/ 16 1033.4 2/ 4 20 S FIRE ISLAND 0750 40 40 230/ 12/ 16 1033.4 2/ 4 GREAT SOUTH BAY NOT AVBL 23 SSW MONTAUK P 0750 39 42 1034.2 2/ 4 15 E BARNEGAT LI 0730 42 N/A 3/ 4 HUDSON CANYON 0650 40 44 210/ 8/ 10 1034.9 2/10 KINGS POINT 0748 37 38 1032.3 EXECUTION ROCKS NOT AVBL CENTRAL LI SOUND 0730 36 210/ 6/ 6 N/A 0 EASTERN LI SOUND NOT AVBL ROBBINS REEF 0748 35 230/ 8/ 11 1032.8 $$ >>>>>>>>>>>>>>>>>>>>>>>>>>>> KEY <<<<<<<<<<<<<<<<<<<<<<<<<<< > < > SKY/WX - Sky Condition/Present Weather < > TMP - Temperature in Fahrenheit < > DP - Dew Point in Fahrenheit < > RH - Relative Humidity in Percent < > WIND - Direction (from) and Speed in MPH < > PRES - Mean Sea Level Pressure (inches of Hg) < > WCI - Wind Chill Index < > VSB - VISIBILITY IN MILES < > HX - HEAT INDEX < > TC - TEMPERATURE IN CELSIUS < > VRB - VARIABLE WIND DIRECTION < > < >>>>>>>>>>>>>>>>>>>>>>>>>>>> KEY <<<<<<<<<<<<<<<<<<<<<<<<<<<

USA.gov is the U.S. government's official web portal to all federal, state and local government web resources and services.